Wind_Speed
45 44 42 41 40 40 40 40 39 39 38 40 41 41 40 39 38 36 37 37 36 36 35 35 35 35 35 36 36 36 36 37 38 38 38 38 38 39 39 39 39 40 41
44 45 43 43 41 41 41 41 42 42 40 40 40 41 41 41 40 39 39 39 38 38 38 38 38 38 38 38 38 38 39 40 40 40 40 40 39 40 41 42 42 43 43
44 46 45 44 43 42 42 42 43 43 43 42 40 40 41 42 42 41 41 41 40 39 39 39 40 40 40 40 41 41 41 41 41 41 42 42 42 42 42 42 43 43 44
43 43 44 45 45 44 43 43 43 43 43 43 43 43 42 42 42 43 42 42 42 41 41 41 42 42 43 43 43 42 42 42 42 42 43 44 44 44 43 43 44 44 44
42 42 43 44 45 45 44 44 44 45 45 44 44 44 45 44 44 44 44 44 44 43 43 44 44 44 44 44 43 43 44 44 45 45 45 45 44 45 45 44 44 44 45
40 42 43 43 44 45 45 45 44 45 46 46 46 46 46 45 45 45 45 46 46 46 45 45 46 46 46 46 47 47 47 47 47 47 46 46 46 46 46 46 45 45 45
40 41 42 44 45 45 46 46 46 46 47 48 48 48 48 47 47 47 47 48 48 47 47 47 48 49 48 47 47 47 47 47 47 47 47 47 47 47 47 47 47 46 46
39 41 43 45 46 47 47 46 46 46 47 48 49 49 49 49 49 49 48 48 49 49 49 49 49 50 49 48 48 48 48 47 48 48 48 48 47 47 47 47 47 47 47
37 39 42 44 45 46 47 46 47 46 46 47 48 49 49 49 50 50 50 50 51 51 50 50 50 51 50 49 49 49 49 49 48 47 47 47 47 47 48 48 48 48 47
36 38 40 42 44 45 46 46 47 47 47 48 48 49 49 49 49 50 50 51 50 50 50 50 51 50 50 50 50 50 49 49 48 47 47 47 48 47 48 48 47 47 47
35 38 40 41 42 44 46 46 47 47 48 48 47 48 49 48 48 49 49 50 49 50 50 50 50 50 50 50 50 50 50 50 50 50 49 48 48 48 47 47 47 47 46
34 36 38 39 40 42 44 46 48 48 47 48 47 48 48 48 48 48 48 48 49 49 50 50 51 50 50 50 50 50 50 50 50 49 48 47 47 47 46 46 46 45 44
33 35 37 39 40 42 44 46 46 47 47 47 47 47 47 47 48 48 49 49 49 49 50 50 50 50 50 49 49 48 48 48 48 47 47 46 45 45 44 44 44 43 43
33 34 36 38 40 41 43 44 45 46 46 47 47 48 48 48 48 48 48 48 48 48 48 48 48 48 48 47 47 46 45 45 46 46 45 45 44 43 42 42 42 42 41
34 35 36 36 37 39 41 43 44 45 46 47 48 48 48 48 48 48 48 48 48 47 47 47 46 46 45 44 44 44 44 44 44 44 44 43 42 41 41 41 41 40 40
33 34 36 36 37 38 40 42 43 45 45 45 46 47 47 47 47 47 47 47 47 47 46 45 45 45 44 44 43 43 43 42 42 42 41 40 40 40 40 40 40 40 39
31 33 34 35 37 37 38 39 41 43 44 44 44 44 44 45 45 46 46 46 46 46 45 45 45 44 44 43 43 42 42 42 41 40 40 40 40 40 40 39 39 38 37
31 32 33 33 34 36 37 38 38 39 40 41 42 43 43 43 43 42 42 43 44 43 43 43 43 43 42 42 42 41 41 41 40 40 40 40 39 39 38 37 37 35 34
30 30 31 33 33 34 35 36 37 38 38 39 40 41 41 42 42 41 41 40 40 41 41 41 41 41 41 41 41 40 39 39 39 39 39 38 38 37 36 35 34 33 32
29 29 30 31 32 34 34 35 36 37 37 38 38 39 40 40 40 41 40 39 39 39 39 39 39 39 39 39 38 38 38 38 38 37 37 37 36 35 34 33 32 31 31
29 29 30 30 31 32 33 34 34 35 36 37 37 38 39 39 39 39 39 39 38 38 37 37 37 36 36 37 37 37 37 37 37 36 36 35 34 33 32 32 31 31 30
28 28 29 29 29 29 30 31 32 33 33 34 36 36 37 37 38 38 38 38 37 36 36 36 36 35 35 36 36 36 36 36 36 35 35 34 33 33 32 32 31 30 29
28 28 27 27 27 28 28 29 29 30 31 33 34 35 35 35 36 36 36 36 36 36 36 35 35 34 34 34 34 34 35 34 34 34 34 33 33 32 32 31 30 30 29
26 27 26 26 26 26 27 27 28 28 29 30 31 32 33 33 33 34 34 34 35 35 34 34 34 34 34 33 33 33 33 33 33 33 33 33 33 32 31 31 30 30 29
25 25 25 25 24 25 26 26 26 27 27 28 28 28 29 29 30 31 32 31 31 32 32 32 33 33 33 33 33 33 33 33 32 32 32 32 32 31 31 30 30 30 29
24 24 23 23 24 24 24 24 25 25 26 27 27 27 28 28 28 29 29 30 30 31 31 31 32 32 32 32 32 32 32 32 32 31 31 31 30 30 30 30 30 30 30
Wind_Direction
226 229 231 233 235 236 237 236 237 235 235 236 237 237 239 241 244 245 247 251 254 257 260 263 265 267 268 269 271 272 274 275 276 278 279 281 283 284 284 286 287 289 290
229 231 234 235 237 238 237 237 239 239 240 241 241 242 243 244 245 247 250 252 254 257 260 263 265 267 268 269 271 273 274 276 277 278 278 279 281 283 284 286 287 288 290
231 233 236 236 239 241 241 241 241 240 242 243 242 244 245 247 248 250 251 253 256 257 260 264 266 267 268 269 271 273 275 276 276 278 280 281 282 283 284 285 287 288 290
235 236 238 240 242 244 244 245 245 244 245 247 248 249 250 250 251 252 253 255 257 259 261 264 267 268 270 270 272 274 275 276 277 279 281 282 283 284 283 284 286 287 289
236 238 240 241 243 245 246 248 248 248 248 249 250 251 252 253 253 255 256 257 259 261 263 266 268 270 272 272 273 275 275 276 278 280 281 283 284 284 285 286 286 287 289
239 241 242 244 246 247 247 248 249 249 249 250 251 252 254 255 255 256 257 259 260 263 265 267 268 269 271 272 274 275 276 277 279 280 281 282 283 283 285 286 287 288 289
243 244 246 246 247 249 249 251 251 251 251 251 252 253 255 256 257 258 259 260 261 263 265 266 268 270 271 273 274 275 276 277 278 279 280 282 283 283 285 286 287 288 289
246 247 248 249 249 250 251 252 252 252 252 252 252 253 255 256 258 259 260 261 261 263 265 267 268 270 271 272 273 275 276 277 279 280 280 282 283 284 285 286 287 287 288
249 250 250 250 250 251 251 252 252 252 253 253 254 255 257 257 258 260 261 262 263 264 266 267 269 270 271 272 274 275 276 278 280 280 280 282 283 284 285 285 286 287 287
254 254 254 252 252 251 252 252 252 253 254 255 256 257 258 259 260 261 262 264 265 265 266 266 267 269 271 272 274 275 276 277 278 278 280 282 282 283 284 285 286 285 286
260 258 257 256 255 254 253 253 253 254 255 256 256 257 258 258 259 260 262 262 263 264 265 266 268 270 271 273 274 274 275 276 277 278 280 281 281 282 283 284 285 286 286
264 260 258 256 255 255 253 254 254 256 256 257 257 257 258 258 259 259 261 262 264 265 266 267 268 270 272 273 274 275 275 276 277 278 280 280 281 282 283 284 285 285 286
267 263 258 257 256 256 255 254 255 256 256 257 257 257 257 257 259 260 261 262 265 265 266 268 269 270 271 273 274 275 276 276 277 279 280 280 281 282 283 284 284 285 286
270 267 262 261 259 258 256 255 255 255 255 255 257 257 257 258 259 260 261 263 265 266 266 268 268 270 271 272 273 274 275 276 277 278 278 279 280 282 283 284 284 285 285
271 268 264 262 260 258 257 257 256 256 255 255 256 257 257 259 260 261 262 263 265 266 267 267 268 270 270 271 272 274 275 275 276 277 278 279 281 283 284 285 285 285 285
274 270 266 264 262 261 259 258 257 256 255 256 256 257 258 259 260 262 263 264 265 266 267 267 268 269 270 272 273 274 275 276 276 278 280 281 282 284 285 286 285 285 284
276 272 268 266 265 264 262 261 260 258 257 257 257 258 259 260 261 262 263 264 265 265 266 266 268 269 270 272 273 275 275 276 277 279 280 282 283 284 285 285 285 285 284
279 273 268 266 266 266 265 264 262 260 259 258 258 258 259 260 261 263 264 264 264 264 265 266 268 268 270 271 273 274 276 277 278 279 280 281 282 283 284 284 283 283 282
283 278 273 269 267 267 267 266 264 262 260 259 259 259 259 260 261 262 264 263 263 264 265 266 268 268 269 270 272 275 276 276 277 278 279 280 281 282 282 282 282 281 281
286 283 278 274 271 269 268 267 266 264 261 259 258 259 260 260 261 261 262 263 264 265 266 266 268 268 270 271 272 273 275 276 277 277 278 279 280 280 281 280 280 280 279
288 286 282 279 275 271 270 269 268 265 263 261 260 261 261 261 261 261 261 262 263 265 265 266 267 268 269 271 272 273 274 275 276 276 277 277 278 279 279 278 278 278 278
289 289 287 282 277 274 273 272 270 267 265 265 263 262 262 262 262 261 261 261 262 263 264 264 266 268 270 271 273 273 274 275 275 275 276 276 277 277 277 277 276 277 276
290 291 290 285 280 277 276 274 273 270 267 266 264 262 262 262 261 260 260 260 261 262 263 264 265 266 268 271 273 273 273 275 275 275 275 275 275 276 276 275 274 275 274
294 292 290 288 283 279 277 276 274 272 269 267 265 262 261 260 258 257 260 260 260 260 262 263 264 266 268 270 272 273 274 274 275 276 275 275 275 274 274 274 273 273 272
296 293 291 288 285 282 278 276 274 272 270 268 267 263 261 260 258 258 259 260 260 260 261 262 264 266 268 270 272 273 274 275 275 276 275 275 274 273 273 273 272 271 271
299 296 293 290 288 284 281 278 274 272 271 271 267 263 261 259 258 259 260 261 261 261 261 263 264 266 268 270 272 273 274 275 275 274 274 274 272 272 272 272 271 271 271
Height
5742 5746 5751 5756 5761 5765 5769 5772 5776 5779 5782 5785 5788 5791 5794 5797 5799 5801 5803 5805 5806 5807 5808 5810 5810 5811 5811 5811 5811 5811 5811 5811 5810 5810 5810 5809 5808 5807 5805 5804 5802 5800 5798
5736 5740 5745 5750 5754 5758 5761 5764 5768 5771 5774 5778 5781 5784 5786 5788 5791 5792 5794 5796 5798 5799 5800 5801 5802 5802 5803 5803 5803 5803 5802 5802 5801 5801 5800 5800 5800 5798 5797 5795 5793 5791 5789
5730 5734 5738 5743 5746 5750 5753 5756 5760 5763 5766 5769 5772 5775 5777 5780 5782 5784 5786 5787 5789 5790 5791 5792 5793 5793 5793 5794 5793 5793 5793 5793 5792 5791 5791 5791 5790 5790 5789 5786 5784 5782 5780
5724 5728 5731 5735 5738 5742 5745 5748 5752 5755 5758 5760 5763 5766 5769 5771 5774 5775 5777 5779 5779 5780 5782 5783 5783 5784 5784 5784 5784 5784 5784 5783 5782 5781 5780 5780 5779 5779 5779 5778 5775 5773 5771
5716 5720 5724 5727 5730 5734 5736 5740 5743 5746 5749 5751 5754 5757 5760 5762 5764 5766 5768 5769 5770 5771 5772 5773 5774 5774 5774 5774 5774 5774 5774 5773 5772 5772 5771 5770 5768 5767 5767 5767 5766 5763 5761
5709 5712 5716 5719 5722 5725 5727 5730 5733 5737 5739 5742 5744 5747 5749 5752 5754 5755 5757 5759 5760 5761 5762 5763 5763 5764 5764 5764 5764 5764 5763 5763 5762 5761 5760 5759 5758 5757 5756 5755 5755 5753 5751
5702 5705 5708 5711 5713 5716 5718 5720 5723 5726 5729 5732 5734 5737 5739 5741 5743 5745 5747 5748 5750 5751 5752 5752 5753 5753 5754 5754 5753 5753 5752 5751 5751 5750 5749 5748 5747 5746 5745 5744 5743 5742 5740
5695 5697 5700 5702 5704 5706 5708 5710 5713 5716 5719 5721 5724 5726 5728 5730 5732 5733 5735 5737 5739 5740 5740 5741 5741 5742 5742 5742 5742 5742 5741 5740 5740 5739 5738 5737 5735 5734 5733 5732 5731 5730 5729
5686 5688 5690 5692 5694 5696 5697 5700 5702 5705 5707 5710 5712 5714 5716 5718 5720 5722 5724 5725 5727 5728 5729 5729 5730 5730 5730 5731 5730 5730 5729 5729 5728 5727 5726 5725 5724 5723 5722 5720 5719 5718 5717
5677 5679 5680 5681 5683 5685 5687 5689 5691 5694 5696 5698 5700 5702 5705 5707 5708 5710 5712 5713 5715 5716 5717 5717 5718 5718 5718 5719 5719 5718 5718 5717 5716 5716 5715 5714 5713 5712 5710 5709 5707 5706 5705
5668 5668 5669 5671 5672 5674 5676 5679 5681 5682 5684 5686 5689 5691 5693 5695 5696 5698 5700 5701 5702 5703 5704 5705 5705 5706 5706 5707 5707 5706 5706 5705 5705 5704 5703 5703 5702 5700 5699 5697 5696 5694 5693
5658 5658 5659 5660 5662 5663 5665 5667 5669 5671 5672 5674 5676 5679 5681 5682 5684 5686 5688 5689 5690 5691 5692 5692 5693 5694 5694 5694 5695 5695 5694 5694 5693 5692 5692 5691 5690 5688 5687 5685 5684 5683 5681
5649 5649 5649 5650 5651 5652 5653 5655 5656 5658 5660 5662 5665 5667 5669 5670 5672 5674 5676 5677 5678 5679 5679 5680 5681 5681 5682 5682 5683 5682 5682 5682 5681 5681 5680 5679 5678 5677 5676 5674 5673 5671 5670
5639 5639 5639 5639 5639 5640 5641 5642 5644 5646 5648 5650 5653 5655 5656 5658 5660 5662 5663 5665 5666 5666 5667 5668 5669 5669 5670 5670 5671 5671 5670 5670 5670 5669 5669 5668 5667 5666 5664 5663 5662 5661 5659
5630 5628 5628 5628 5628 5629 5630 5631 5632 5634 5636 5639 5641 5643 5645 5647 5649 5650 5652 5653 5654 5655 5655 5656 5657 5658 5658 5659 5659 5659 5659 5659 5659 5658 5657 5657 5656 5654 5654 5652 5651 5650 5648
5619 5618 5618 5618 5618 5618 5619 5620 5621 5623 5625 5628 5630 5631 5633 5635 5637 5638 5640 5641 5642 5643 5644 5645 5646 5647 5647 5647 5648 5648 5648 5648 5647 5647 5646 5646 5645 5644 5643 5642 5640 5639 5638
5610 5608 5608 5608 5608 5608 5609 5609 5610 5611 5614 5616 5618 5620 5622 5624 5625 5627 5628 5630 5631 5632 5633 5634 5635 5636 5636 5636 5637 5637 5637 5637 5636 5636 5636 5635 5634 5633 5632 5631 5630 5629 5627
5601 5599 5598 5598 5598 5598 5598 5599 5599 5601 5602 5605 5607 5608 5610 5612 5614 5616 5617 5618 5620 5621 5622 5623 5624 5625 5625 5626 5626 5626 5626 5626 5626 5625 5625 5624 5624 5623 5622 5620 5619 5619 5618
5591 5590 5589 5589 5588 5588 5588 5588 5589 5590 5592 5594 5596 5597 5599 5601 5603 5605 5606 5607 5609 5610 5611 5612 5613 5614 5614 5615 5615 5615 5615 5615 5615 5615 5614 5614 5613 5612 5611 5610 5610 5609 5608
5583 5581 5580 5579 5579 5578 5578 5578 5579 5580 5581 5583 5585 5586 5588 5590 5592 5594 5595 5597 5598 5599 5601 5602 5602 5603 5604 5604 5605 5605 5605 5605 5605 5604 5604 5603 5603 5602 5601 5601 5600 5600 5599
5575 5573 5571 5570 5569 5568 5568 5568 5569 5570 5571 5572 5574 5576 5577 5579 5581 5583 5584 5586 5588 5589 5590 5591 5592 5593 5593 5594 5594 5595 5595 5594 5594 5594 5593 5593 5593 5592 5592 5591 5591 5591 5590
5566 5564 5562 5560 5559 5559 5559 5559 5559 5559 5560 5562 5563 5565 5566 5568 5570 5571 5573 5575 5577 5578 5579 5581 5582 5582 5583 5584 5584 5584 5584 5584 5584 5584 5583 5583 5583 5583 5582 5582 5582 5581 5581
5558 5556 5554 5552 5551 5551 5550 5550 5550 5550 5550 5551 5552 5554 5556 5557 5559 5561 5562 5564 5566 5568 5569 5571 5572 5572 5573 5574 5574 5574 5574 5574 5574 5574 5573 5573 5573 5573 5573 5572 5572 5572 5572
5550 5548 5547 5545 5544 5543 5542 5542 5541 5541 5541 5542 5542 5543 5545 5547 5548 5550 5552 5553 5555 5557 5559 5560 5562 5563 5563 5564 5564 5564 5564 5564 5564 5564 5563 5563 5563 5563 5563 5563 5563 5563 5564
5543 5541 5540 5538 5537 5536 5535 5534 5533 5533 5533 5533 5533 5533 5535 5537 5539 5540 5542 5544 5545 5547 5549 5551 5552 5553 5554 5554 5555 5555 5555 5554 5554 5554 5554 5554 5553 5553 5554 5554 5554 5554 5554
5538 5536 5534 5532 5531 5529 5528 5527 5526 5526 5526 5525 5525 5526 5527 5528 5530 5532 5533 5534 5536 5538 5539 5541 5542 5543 5544 5544 5545 5545 5545 5545 5544 5544 5544 5544 5544 5544 5544 5544 5545 5545 5545